Hastings, NE

8:07 AM CST on January 24, 2017 (GMT -0600)
Hastings Municipal

Weather History for KHSI - December, 2012

Change the Weather History Date:

Tuesday, December 11, 2012

  Actual Average Record
Temperature  
Mean Temperature 30 °F 28 °F  
Max Temperature 44 °F 38 °F 67 °F (1990)
Min Temperature 15 °F 19 °F -8 °F (2000)
Degree Days  
Heating Degree Days 35 37  
Month to date heating degree days 313 387  
Since 1 July heating degree days 1572 1668  
Cooling Degree Days 0 0  
Month to date cooling degree days 0 0  
Year to date cooling degree days 1339 1077  
Moisture  
Dew Point 13 °F    
Average Humidity 56    
Maximum Humidity 84    
Minimum Humidity 27    
Precipitation  
Precipitation 0.00 in 0.02 in 0.45 in (1961)
Month to date precipitation T 0.36  
Year to date precipitation 18.78 26.86  
Snow  
Snow 0.00 in 0.20 in 6.00 in (1961)
Month to date snowfall 0.0 2.0  
Since 1 July snowfall 0.3 5.8  
Snow Depth 0.00 in    
Sea Level Pressure  
Sea Level Pressure 30.02 in    
Wind  
Wind Speed 9 mph (SW)    
Max Wind Speed 21 mph    
Max Gust Speed 25 mph    
Visibility 10 miles    
Events      
T = Trace of Precipitation, MM = Missing Value Source: NWS Daily Summary

Daily Weather History Graph

Daily Weather History Graph

Search for Another Location

Airport or City:

Trip Planner

Search our weather history database for the weather conditions in past years. The results will help you decide how hot, cold, wet, or windy it might be!

Date:

Astronomy

Dec. 11, 2012 Rise Set
Actual Time 7:47 AM CST 5:06 PM CST
Civil Twilight 7:16 AM CST 5:37 PM CST
Nautical Twilight 6:42 AM CST 6:11 PM CST
Astronomical Twilight 6:09 AM CST 6:45 PM CST
Moon 5:44 AM CST (12/11) 3:47 PM CST (12/11)
Length of Visible Light 10h 20m
Length of Day
9h 19m
Waning Crescent, 4% of the Moon is Illuminated
Dec 11
Waning Crescent
Dec 13
New
Dec 19
First Quarter
Dec 28
Full
Jan 4
Last Quarter

Hourly Weather History & Observations

Time (CST) Temp. Windchill Dew Point Humidity Pressure Visibility Wind Dir Wind Speed Gust Speed Precip Events Conditions
12:53 AM 23.0 °F 13.9 °F 10.9 °F 60% 30.01 in 10.0 mi WNW 8.1 mph - N/A   Mostly Cloudy
1:53 AM 21.9 °F 13.4 °F 12.9 °F 68% 30.01 in 10.0 mi WNW 6.9 mph - N/A   Mostly Cloudy
2:53 AM 21.9 °F 14.5 °F 14.0 °F 72% 30.02 in 10.0 mi West 5.8 mph - N/A   Mostly Cloudy
3:53 AM 19.9 °F 12.1 °F 14.0 °F 78% 30.02 in 10.0 mi WNW 5.8 mph - N/A   Mostly Cloudy
4:53 AM 18.0 °F 12.7 °F 12.9 °F 81% 30.04 in 10.0 mi WSW 3.5 mph - N/A   Clear
5:53 AM 18.0 °F 11.1 °F 12.9 °F 81% 30.06 in 10.0 mi SW 4.6 mph - N/A   Clear
6:53 AM 17.1 °F 11.7 °F 12.9 °F 84% 30.07 in 10.0 mi SW 3.5 mph - N/A   Clear
7:53 AM 15.1 °F 6.4 °F 10.9 °F 84% 30.09 in 10.0 mi WSW 5.8 mph - N/A   Clear
8:53 AM 19.9 °F 12.1 °F 15.1 °F 81% 30.09 in 10.0 mi WSW 5.8 mph - N/A   Clear
9:53 AM 28.9 °F 21.1 °F 19.9 °F 69% 30.09 in 10.0 mi SW 8.1 mph - N/A   Clear
10:53 AM 36.0 °F 28.5 °F 21.0 °F 55% 30.07 in 10.0 mi SW 10.4 mph 20.7 mph N/A   Clear
11:53 AM 39.0 °F 29.9 °F 19.0 °F 45% 30.04 in 10.0 mi WSW 17.3 mph 23.0 mph N/A   Clear
12:53 PM 41.0 °F 32.5 °F 17.1 °F 38% 30.02 in 10.0 mi West 17.3 mph 21.9 mph N/A   Clear
1:53 PM 43.0 °F 35.4 °F 15.1 °F 32% 30.00 in 10.0 mi West 16.1 mph 21.9 mph N/A   Clear
2:53 PM 43.0 °F 35.7 °F 12.9 °F 30% 29.98 in 10.0 mi West 15.0 mph 21.9 mph N/A   Clear
3:53 PM 43.0 °F 36.4 °F 10.9 °F 27% 29.99 in 10.0 mi WSW 12.7 mph - N/A   Clear
4:53 PM 39.0 °F 35.7 °F 10.0 °F 30% 29.99 in 10.0 mi SW 4.6 mph - N/A   Clear
5:53 PM 35.1 °F 31.0 °F 10.9 °F 37% 30.00 in 10.0 mi South 4.6 mph - N/A   Clear
6:53 PM 32.0 °F 25.6 °F 12.0 °F 44% 30.01 in 10.0 mi South 6.9 mph - N/A   Clear
7:53 PM 30.0 °F 22.4 °F 10.9 °F 45% 30.01 in 10.0 mi South 8.1 mph - N/A   Clear
8:53 PM 30.9 °F 22.2 °F 10.9 °F 43% 30.01 in 10.0 mi South 10.4 mph - N/A   Clear
9:53 PM 28.9 °F 21.1 °F 10.0 °F 45% 29.99 in 10.0 mi South 8.1 mph - N/A   Clear
10:53 PM 30.0 °F 21.1 °F 10.9 °F 45% 29.98 in 10.0 mi South 10.4 mph - N/A   Clear
11:53 PM 28.9 °F 20.4 °F 12.9 °F 51% 29.98 in 10.0 mi South 9.2 mph - N/A   Clear